This demonstration page uses our WeatherBlox Daily Observations layout. Learn more.

36.17497, -115.13722

Hourly Observations for August 11, 2018

Temp ( °F °C ) Dew Point ( °F °C ) Humidity (%) Winds ( mph kmh ) Pressure ( in mb ) Visibility ( mi km ) Precip ( " mm )
12:53 am 00:53 Clear 92 33.3 58 14.4 32 32 SW 5 7 29.83 1010 10 16.0934 0 0
1:53 am 01:53 Clear 90 32.2 58 14.4 34 34 N 3 6 29.83 1010 10 16.0934 0 0
2:53 am 02:53 Clear 89 31.7 57 13.9 34 34 ENE 3 6 29.83 1010 10 16.0934 0 0
3:53 am 03:53 Clear 87 30.6 58 14.4 37 37 NNW 7 11 29.83 1010 10 16.0934 0 0
4:53 am 04:53 Clear 87 30.6 58 14.4 37 37 N 5 7 29.85 1011 10 16.0934 0 0
5:53 am 05:53 Clear 85 29.4 55 12.8 36 36 Calm 29.88 1012 10 16.0934 0 0
6:53 am 06:53 Sunny 86 30 52 11.1 31 31 NE 3 6 29.91 1013 10 16.0934 0 0
7:53 am 07:53 Sunny 87 30.6 49 9.4 27 27 ESE 7 11 29.92 1013 10 16.0934 0 0
8:53 am 08:53 Sunny 91 32.8 53 11.7 27 27 E 5 7 29.93 1014 10 16.0934 0 0
9:53 am 09:53 Sunny 94 34.4 55 12.8 27 27 SSE 8 13 29.93 1014 10 16.0934 0 0
10:53 am 10:53 Sunny 96 35.6 58 14.4 28 28 SE 7 11 29.93 1013 10 16.0934 0 0
11:53 am 11:53 Sunny 98 36.7 60 15.6 28 28 ESE 16 26 29.91 1013 10 16.0934 0 0
12:53 pm 12:53 Sunny 101 38.3 59 15 25 25 ESE 14 22 29.88 1012 10 16.0934 0 0
1:53 pm 13:53 Sunny 102 38.9 58 14.4 23 23 E 10 17 29.85 1011 10 16.0934 0 0
2:53 pm 14:53 Sunny 103 39.4 56 13.3 21 21 ESE 8 13 29.81 1010 10 16.0934 0 0
3:53 pm 15:53 Sunny 106 41.1 51 10.6 16 16 ESE 9 15 29.77 1008 10 16.0934 0 0
4:53 pm 16:53 Sunny 105 40.6 48 8.9 15 15 WSW 7 11 29.75 1008 10 16.0934 0 0
5:44 pm 17:44 Sunny 105 40.6 47 8.3 14 14 S 15 24 29.56 1001 10 16.0934 0 0
5:53 pm 17:53 Sunny 105 40.6 47 8.3 14 14 S 12 19 29.74 1007 10 16.0934 0 0
6:53 pm 18:53 Sunny 104 40 46 7.8 14 14 SW 9 15 29.75 1007 10 16.0934 0 0
7:53 pm 19:53 Clear 102 38.9 48 8.9 16 16 S 8 13 29.77 1008 10 16.0934 0 0
8:38 pm 20:38 Hazy 91 32.8 52 11.1 26 26 E 29 46 29.74 1007 2.5 4.02335 0 0
8:42 pm 20:42 Mostly Cloudy with Haze 90 32.2 53 11.7 28 28 E 44 70 29.74 1007 2.5 4.02335 0 0
8:50 pm 20:50 Mostly Cloudy with Haze 84 29 57 14 40 40 E 39 63 29.83 1010 3 4.82802 0 0
8:53 pm 20:53 Mostly Cloudy with Haze 83 28.3 57 13.9 41 41 E 36 57 29.95 1014 5 8.0467 0 0
9:09 pm 21:09 Partly Cloudy 78 25.6 60 15.6 54 54 E 40 65 29.91 1013 8 12.87472 0 0
9:53 pm 21:53 Cloudy 80 26.7 58 14.4 47 47 SW 8 13 30.06 1018 10 16.0934 0 0
10:53 pm 22:53 Mostly Clear 80 26.7 62 16.7 54 54 S 8 13 30.06 1018 10 16.0934 0 0.0254
11:53 pm 23:53 Clear 83 28.3 56 13.3 40 40 W 18 30 29.96 1015 10 16.0934 0 0.0254

Powered by AerisWeather